Location: Unspecified
(0.0000°N, 0.0000°E)
Time: 20:59:53
(UTC+00:00)

Vanguard 1 - Pass Details

Date: 17 June 2025
Orbit: 649 x 3822 km, 34.2° (Epoch: 12 July)

Event Time Altitude Azimuth Distance (km) Brightness Sun altitude
Exits shadow 04:55:35 11° 201° (SSW) 2,414 11.7 -15.0°
Maximum altitude 05:00:36 33° 137° (SE) 1,749 11.5 -13.8°
Drops below altitude 10° 05:08:40 10° 76° (ENE) 3,908 14.6 -12.0°
Sets 05:13:20 0° 68° (ENE) 5,459 16.2 -10.9°
